User: anonymous
Location: Vancouver
(49.2500°N, 123.1330°W)
Time: 14:55:28
(UTC-07:00)
Language:

Cosmos 1408 Rocket - Orbit

View from above orbital plane
View from above orbital plane
View from above satellite
View from above satellite

Ground track
Ground track

The orbit data is extracted from the following two-line orbital elements,

1 13553U 82092B   14273.49021291  .00000723  00000-0  84406-4 0   307
2 13553 082.5670 076.8581 0023074 079.7821 333.0674 14.83601626730117
Epoch (UTC): 30 September 2014 11:45:54
Eccentricity: 0.0023074
inclination: 82.5670°
perigee height: 602 km
apogee height: 634 km
right ascension of ascending node: 76.8581°
argument of perigee: 79.7821°
revolutions per day: 14.83601626
mean anomaly at epoch: 333.0674°
orbit number at epoch: 73011

The dashed part of the orbit path shows where the satellite is in the earth's shadow,  

DLR